Location: Unspecified
(0.0000°N, 0.0000°E)
Time: 16:18:48
(UTC+00:00)

Envisat - Pass Details

Date: 25 April 2019
Orbit: 764 x 766 km, 98.2° (Epoch: 19 May)

Event Time Altitude Azimuth Distance (km) Brightness Sun altitude
Rises 19:02:58 0° 171° (S) 3,232 6.0 -15.8°
Reaches altitude 10° 19:05:16 10° 173° (S) 2,303 5.3 -16.4°
Maximum altitude 19:10:20 76° 258° (WSW) 789 3.1 -17.6°
Drops below altitude 10° 19:15:23 10° 344° (NNW) 2,293 5.8 -18.8°
Sets 19:17:41 0° 345° (NNW) 3,216 6.6 -19.4°
